| time (UTC) | temp F | wind direction | speed MPH | gust MPH | rain 1hr in | rain 24hr in | rain mn in | humidity % | barometer mb |
| 20260506192200 | 45 | 318 | 2.0 | 2.0 | 0.00 | 0.78 | 0.78 | 99 | 1061.8 |
| 20260506191158 | 45 | 317 | 3.0 | 3.0 | 0.00 | 0.78 | 0.78 | 99 | 1061.8 |
| 20260506190158 | 45 | 296 | 0.0 | 0.0 | 0.00 | 0.78 | 0.78 | 99 | 1061.5 |
| 20260506185157 | 45 | 338 | 2.0 | 2.0 | 0.05 | 0.78 | 0.78 | 99 | 1061.3 |
| 20260506184152 | 45 | 309 | 0.0 | 1.0 | 0.00 | 0.77 | 0.77 | 99 | 1061.1 |
| 20260506183151 | 45 | 306 | 1.0 | 2.0 | 0.00 | 0.77 | 0.77 | 99 | 1061.5 |
| 20260506182151 | 44 | 252 | 0.0 | 0.0 | 0.00 | 0.77 | 0.77 | 99 | 1061.4 |
| 20260506181146 | 44 | 78 | 3.0 | 5.0 | 0.00 | 0.77 | 0.77 | 99 | 1060.9 |
| 20260506180145 | 44 | 307 | 0.0 | 0.0 | 0.00 | 0.77 | 0.77 | 99 | 1061.1 |
| 20260506175144 | 44 | 286 | 0.0 | 0.0 | 0.00 | 0.77 | 0.77 | 99 | 1061.2 |
| 20260506174139 | 44 | 300 | 0.0 | 1.0 | 0.00 | 0.77 | 0.77 | 99 | 1061.1 |
| 20260506173139 | 44 | 55 | 1.0 | 1.0 | 0.00 | 0.77 | 0.77 | 99 | 1061.4 |
| 20260506172138 | 44 | 297 | 0.0 | 1.0 | 0.00 | 0.77 | 0.77 | 99 | 1061.3 |
| 20260506171134 | 44 | 2 | 1.0 | 1.0 | 0.07 | 0.77 | 0.77 | 99 | 1061.1 |
| 20260506170128 | 43 | 90 | 3.0 | 3.0 | 0.00 | 0.76 | 0.76 | 99 | 1061.1 |
| 20260506165127 | 43 | 303 | 0.0 | 1.0 | 0.05 | 0.76 | 0.76 | 99 | 1061.2 |
| 20260506164127 | 43 | 310 | 0.0 | 1.0 | 0.07 | 0.75 | 0.75 | 99 | 1061.6 |
| 20260506163123 | 42 | 315 | 1.0 | 2.0 | 0.05 | 0.74 | 0.74 | 99 | 1061.5 |
| 20260506162123 | 42 | 314 | 1.0 | 1.0 | 0.07 | 0.73 | 0.73 | 99 | 1061.8 |
| 20260506161121 | 42 | 78 | 0.0 | 0.0 | 0.05 | 0.72 | 0.72 | 99 | 1061.9 |
| 20260506160120 | 42 | 78 | 4.0 | 5.0 | 0.00 | 0.71 | 0.71 | 99 | 1061.5 |
| 20260506155116 | 42 | 59 | 1.0 | 2.0 | 0.05 | 0.70 | 0.70 | 99 | 1061.6 |
| 20260506152924 | 42 | 288 | 0.0 | 0.0 | 0.07 | 0.69 | 0.69 | 99 | 1061.6 |
| 20260506151920 | 42 | 357 | 1.0 | 1.0 | 0.07 | 0.68 | 0.68 | 99 | 1061.2 |
| 20260506150920 | 42 | 311 | 0.0 | 1.0 | 0.05 | 0.67 | 0.67 | 99 | 1061.5 |
| 20260506145919 | 41 | 292 | 0.0 | 0.0 | 0.07 | 0.66 | 0.66 | 99 | 1061.4 |
| 20260506144918 | 41 | 319 | 1.0 | 1.0 | 0.07 | 0.64 | 0.64 | 99 | 1061.3 |
| 20260506143913 | 41 | 86 | 2.0 | 2.0 | 0.12 | 0.63 | 0.63 | 99 | 1061.3 |
| 20260506142908 | 41 | 320 | 0.0 | 1.0 | 0.12 | 0.61 | 0.61 | 99 | 1061.6 |
| 20260506141904 | 41 | 295 | 0.0 | 0.0 | 0.12 | 0.59 | 0.59 | 99 | 1061.9 |
| 20260506140859 | 40 | 75 | 3.0 | 5.0 | 0.19 | 0.57 | 0.57 | 99 | 1061.9 |
| 20260506135859 | 40 | 31 | 1.0 | 1.0 | 0.12 | 0.54 | 0.54 | 99 | 1061.8 |
| 20260506134858 | 40 | 314 | 1.0 | 1.0 | 0.17 | 0.52 | 0.52 | 99 | 1061.6 |
| 20260506133857 | 40 | 323 | 2.0 | 2.0 | 0.12 | 0.49 | 0.49 | 99 | 1061.8 |
| 20260506132855 | 40 | 317 | 1.0 | 2.0 | 0.12 | 0.46 | 0.46 | 99 | 1061.6 |
| 20260506131851 | 41 | 320 | 1.0 | 1.0 | 0.12 | 0.44 | 0.44 | 99 | 1061.6 |
| 20260506130850 | 41 | 313 | 3.0 | 3.0 | 0.12 | 0.42 | 0.42 | 99 | 1061.4 |
| 20260506125850 | 41 | 330 | 2.0 | 2.0 | 0.05 | 0.39 | 0.39 | 99 | 1061.1 |
| 20260506124846 | 41 | 311 | 1.0 | 1.0 | 0.00 | 0.37 | 0.37 | 99 | 1061.4 |
| 20260506123846 | 41 | 280 | 0.0 | 0.0 | 0.07 | 0.36 | 0.36 | 99 | 1061.5 |
| 20260506122842 | 41 | 74 | 2.0 | 3.0 | 0.05 | 0.35 | 0.35 | 99 | 1061.6 |
| 20260506121837 | 40 | 97 | 5.0 | 6.0 | 0.07 | 0.34 | 0.34 | 99 | 1061.6 |
| 20260506120836 | 40 | 333 | 1.0 | 1.0 | 0.12 | 0.33 | 0.33 | 99 | 1062.0 |
| 20260506115831 | 40 | 328 | 1.0 | 1.0 | 0.07 | 0.31 | 0.31 | 99 | 1062.3 |
| 20260506114827 | 40 | 61 | 3.0 | 6.0 | 0.12 | 0.30 | 0.30 | 99 | 1061.9 |
| 20260506113823 | 41 | 66 | 2.0 | 3.0 | 0.12 | 0.28 | 0.28 | 99 | 1062.4 |
| 20260506112822 | 41 | 72 | 2.0 | 3.0 | 0.05 | 0.26 | 0.26 | 99 | 1062.6 |
| 20260506111817 | 41 | 287 | 0.0 | 0.0 | 0.12 | 0.24 | 0.24 | 99 | 1063.1 |
| 20260506110812 | 41 | 308 | 1.0 | 1.0 | 0.12 | 0.22 | 0.22 | 99 | 1063.0 |
| 20260506105812 | 41 | 316 | 2.0 | 2.0 | 0.12 | 0.20 | 0.20 | 99 | 1063.0 |
| 20260506104806 | 41 | 326 | 2.0 | 2.0 | 0.12 | 0.17 | 0.17 | 99 | 1062.8 |
| 20260506103801 | 41 | 298 | 1.0 | 2.0 | 0.05 | 0.15 | 0.15 | 99 | 1062.6 |
| 20260506102801 | 42 | 289 | 0.0 | 0.0 | 0.00 | 0.14 | 0.14 | 99 | 1062.3 |
| 20260506101756 | 42 | 290 | 0.0 | 0.0 | 0.00 | 0.14 | 0.14 | 99 | 1062.4 |
| 20260506100756 | 42 | 58 | 1.0 | 1.0 | 0.07 | 0.14 | 0.14 | 99 | 1062.7 |
| 20260506095753 | 42 | 282 | 0.0 | 0.0 | 0.12 | 0.13 | 0.13 | 99 | 1062.8 |
| 20260506094751 | 42 | 84 | 1.0 | 1.0 | 0.00 | 0.11 | 0.11 | 99 | 1062.6 |
| 20260506093748 | 42 | 310 | 1.0 | 1.0 | 0.00 | 0.11 | 0.11 | 99 | 1062.5 |
| 20260506092748 | 42 | 291 | 0.0 | 1.0 | 0.00 | 0.11 | 0.11 | 99 | 1062.8 |
| 20260506091748 | 42 | 285 | 0.0 | 0.0 | 0.05 | 0.11 | 0.11 | 99 | 1062.8 |
| 20260506090744 | 42 | 314 | 2.0 | 2.0 | 0.00 | 0.10 | 0.10 | 99 | 1062.8 |
| 20260506085743 | 42 | 294 | 0.0 | 0.0 | 0.07 | 0.10 | 0.10 | 99 | 1063.1 |
| 20260506084742 | 42 | 322 | 0.0 | 1.0 | 0.00 | 0.09 | 0.09 | 99 | 1063.0 |
| 20260506083741 | 42 | 289 | 0.0 | 0.0 | 0.00 | 0.09 | 0.09 | 99 | 1062.9 |
| 20260506082736 | 43 | 323 | 1.0 | 1.0 | 0.00 | 0.09 | 0.09 | 99 | 1062.6 |
| 20260506081735 | 43 | 319 | 2.0 | 2.0 | 0.00 | 0.09 | 0.09 | 99 | 1063.2 |
| 20260506080731 | 43 | 322 | 1.0 | 2.0 | 0.00 | 0.09 | 0.09 | 99 | 1062.6 |
| 20260506072725 | 43 | 287 | 0.0 | 0.0 | 0.00 | 0.08 | 0.08 | 99 | 1062.8 |
| 20260506071720 | 43 | 79 | 3.0 | 3.0 | 0.00 | 0.08 | 0.08 | 99 | 1062.8 |
| 20260506070720 | 43 | 95 | 3.0 | 3.0 | 0.12 | 0.08 | 0.08 | 99 | 1063.2 |
| 20260506061708 | 45 | 289 | 0.0 | 0.0 | 0.00 | 0.06 | 0.06 | 99 | 1063.4 |
| 20260506060704 | 45 | 312 | 1.0 | 1.0 | 0.00 | 0.06 | 0.06 | 99 | 1063.7 |
| 20260506050654 | 46 | 283 | 0.0 | 1.0 | 0.00 | 0.06 | 0.06 | 99 | 1064.3 |
| 20260506044648 | 47 | 284 | 0.0 | 0.0 | 0.07 | 0.05 | 0.05 | 99 | 1064.2 |
| 20260506043648 | 47 | 274 | 0.0 | 0.0 | 0.05 | 0.04 | 0.04 | 99 | 1064.3 |
| 20260506042645 | 46 | 276 | 0.0 | 0.0 | 0.00 | 0.03 | 0.03 | 99 | 1064.7 |
| 20260506041641 | 47 | 307 | 2.0 | 2.0 | 0.05 | 0.02 | 0.02 | 99 | 1064.3 |
| 20260506040641 | 47 | 278 | 0.0 | 0.0 | 0.07 | 0.01 | 0.01 | 99 | 1064.7 |
| 20260506035641 | 47 | 278 | 0.0 | 1.0 | 0.05 | 0.38 | 0.38 | 99 | 1064.6 |
| 20260506034640 | 47 | 285 | 0.0 | 0.0 | 0.07 | 0.37 | 0.37 | 99 | 1064.1 |
| 20260506033640 | 47 | 315 | 2.0 | 2.0 | 0.00 | 0.36 | 0.36 | 99 | 1064.6 |
| 20260506032640 | 48 | 269 | 0.0 | 0.0 | 0.00 | 0.36 | 0.36 | 99 | 1064.7 |
| 20260506031639 | 48 | 294 | 1.0 | 1.0 | 0.19 | 0.35 | 0.35 | 99 | 1064.1 |
| 20260506030635 | 48 | 270 | 2.0 | 2.0 | 0.07 | 0.32 | 0.32 | 99 | 1064.3 |
| 20260506025634 | 48 | 294 | 0.0 | 0.0 | 0.00 | 0.31 | 0.31 | 99 | 1063.7 |
| 20260506024634 | 48 | 287 | 0.0 | 0.0 | 0.00 | 0.31 | 0.31 | 99 | 1063.6 |
| 20260506023632 | 48 | 277 | 0.0 | 0.0 | 0.00 | 0.31 | 0.31 | 99 | 1063.5 |
| 20260506022632 | 48 | 285 | 0.0 | 0.0 | 0.00 | 0.31 | 0.31 | 99 | 1064.2 |
| 20260506021627 | 49 | 307 | 0.0 | 0.0 | 0.05 | 0.31 | 0.31 | 99 | 1063.9 |
| 20260506020627 | 49 | 276 | 0.0 | 0.0 | 0.00 | 0.30 | 0.30 | 99 | 1064.5 |
| 20260506015622 | 49 | 291 | 0.0 | 0.0 | 0.00 | 0.30 | 0.30 | 99 | 1064.1 |
| 20260506014617 | 49 | 295 | 0.0 | 0.0 | 0.07 | 0.30 | 0.30 | 99 | 1064.1 |
| 20260506013617 | 49 | 279 | 0.0 | 0.0 | 0.12 | 0.29 | 0.29 | 99 | 1064.1 |
| 20260506012615 | 49 | 295 | 1.0 | 1.0 | 0.05 | 0.27 | 0.27 | 99 | 1064.1 |
| 20260506011615 | 50 | 321 | 1.0 | 2.0 | 0.07 | 0.26 | 0.26 | 98 | 1063.5 |
| 20260506010611 | 51 | 316 | 1.0 | 2.0 | 0.24 | 0.25 | 0.25 | 95 | 1063.6 |
| 20260506005610 | 53 | 321 | 3.0 | 3.0 | 0.00 | 0.20 | 0.20 | 88 | 1063.5 |
| 20260506004609 | 54 | 324 | 3.0 | 3.0 | 0.00 | 0.20 | 0.20 | 86 | 1063.0 |
| 20260506003608 | 54 | 321 | 3.0 | 5.0 | 0.00 | 0.20 | 0.20 | 85 | 1062.9 |
| 20260506002606 | 54 | 282 | 1.0 | 1.0 | 0.00 | 0.20 | 0.20 | 91 | 1062.9 |
| 20260506001604 | 54 | 276 | 1.0 | 1.0 | 0.00 | 0.20 | 0.20 | 93 | 1062.5 |
| 20260506000559 | 54 | 300 | 2.0 | 2.0 | 0.00 | 0.20 | 0.20 | 92 | 1062.2 |
| 20260505235554 | 54 | 296 | 3.0 | 5.0 | 0.00 | 0.20 | 0.20 | 99 | 1062.3 |
| 20260505234554 | 55 | 285 | 1.0 | 1.0 | 0.00 | 0.20 | 0.20 | 99 | 1062.1 |
| 20260505233554 | 55 | 257 | 1.0 | 2.0 | 0.00 | 0.20 | 0.20 | 99 | 1062.0 |
| 20260505232549 | 55 | 265 | 1.0 | 1.0 | 0.00 | 0.20 | 0.20 | 99 | 1061.6 |
| 20260505231548 | 55 | 266 | 0.0 | 0.0 | 0.00 | 0.20 | 0.20 | 99 | 1061.2 |
| 20260505230544 | 55 | 260 | 0.0 | 0.0 | 0.00 | 0.20 | 0.20 | 99 | 1061.1 |
| 20260505225543 | 55 | 266 | 0.0 | 0.0 | 0.00 | 0.20 | 0.20 | 99 | 1061.2 |
| 20260505224542 | 55 | 272 | 0.0 | 0.0 | 0.26 | 0.20 | 0.20 | 99 | 1061.2 |
| 20260505223542 | 56 | 255 | 3.0 | 3.0 | 0.24 | 0.16 | 0.16 | 99 | 1061.4 |
| 20260505222540 | 58 | 280 | 1.0 | 2.0 | 0.47 | 0.12 | 0.12 | 97 | 1061.4 |
| 20260505221539 | 60 | 267 | 1.0 | 1.0 | 0.00 | 0.04 | 0.04 | 91 | 1060.8 |
| 20260505220539 | 63 | 240 | 4.0 | 5.0 | 0.00 | 0.04 | 0.04 | 80 | 1060.3 |
| 20260505215535 | 64 | 260 | 2.0 | 2.0 | 0.00 | 0.04 | 0.04 | 78 | 1060.1 |
| 20260505214530 | 64 | 320 | 2.0 | 2.0 | 0.00 | 0.04 | 0.04 | 77 | 1060.0 |
| 20260505213530 | 65 | 250 | 3.0 | 3.0 | 0.00 | 0.04 | 0.04 | 76 | 1060.2 |
| 20260505212528 | 65 | 251 | 2.0 | 2.0 | 0.00 | 0.04 | 0.04 | 76 | 1059.9 |
| 20260505211523 | 64 | 291 | 1.0 | 1.0 | 0.00 | 0.04 | 0.04 | 77 | 1059.7 |
| 20260505210522 | 64 | 289 | 2.0 | 2.0 | 0.00 | 0.04 | 0.04 | 77 | 1059.8 |
| 20260505205517 | 64 | 268 | 1.0 | 1.0 | 0.00 | 0.04 | 0.04 | 77 | 1060.1 |
| 20260505204517 | 63 | 256 | 3.0 | 3.0 | 0.00 | 0.04 | 0.04 | 78 | 1060.2 |
| 20260505203517 | 64 | 279 | 3.0 | 3.0 | 0.00 | 0.04 | 0.04 | 78 | 1060.2 |
| 20260505202516 | 64 | 255 | 3.0 | 3.0 | 0.00 | 0.04 | 0.04 | 81 | 1060.1 |
| 20260505201515 | 63 | 252 | 3.0 | 3.0 | 0.00 | 0.04 | 0.04 | 82 | 1059.8 |
| 20260505200510 | 63 | 253 | 3.0 | 3.0 | 0.00 | 0.04 | 0.04 | 84 | 1060.1 |
| 20260505195509 | 61 | 264 | 2.0 | 2.0 | 0.00 | 0.04 | 0.04 | 84 | 1060.0 |
| 20260505194510 | 60 | 248 | 3.0 | 3.0 | 0.00 | 0.04 | 0.04 | 85 | 1060.2 |
| 20260505193507 | 60 | 232 | 8.0 | 9.0 | 0.00 | 0.04 | 0.04 | 87 | 1060.6 |